Time,TemperatureF,DewpointF,PressureIn,WindDirection,WindDirectionDegrees,WindSpeedMPH,WindSpeedGustMPH,Humidity,HourlyPrecipIn,Conditions,Clouds,dailyrainin,SoftwareType,DateUTC
2013-08-21 00:00:00,69.6,64.5,30.37,SSW,203,0.0,0.0,84,0.00,,,0.00,WUHU216HW,2013-08-21 04:00:00,
2013-08-21 00:05:00,69.4,64.3,30.37,SSW,203,0.0,0.0,84,0.00,,,0.00,WUHU216HW,2013-08-21 04:05:00,
2013-08-21 00:10:00,69.4,64.3,30.38,SSW,203,0.0,0.0,84,0.00,,,0.00,WUHU216HW,2013-08-21 04:10:00,
2013-08-21 00:15:00,69.2,64.1,30.38,SSW,203,0.0,0.0,84,0.00,,,0.00,WUHU216HW,2013-08-21 04:15:00,
2013-08-21 00:20:00,69.2,64.1,30.38,SSW,203,0.0,0.0,84,0.00,,,0.00,WUHU216HW,2013-08-21 04:20:00,
2013-08-21 00:25:00,69.0,64.3,30.38,SSW,203,0.0,0.0,85,0.00,,,0.00,WUHU216HW,2013-08-21 04:25:00,
2013-08-21 00:30:00,68.9,64.1,30.38,SSW,203,0.0,0.0,85,0.00,,,0.00,WUHU216HW,2013-08-21 04:30:00,
2013-08-21 00:35:00,68.9,64.1,30.38,SSW,203,0.0,0.0,85,0.00,,,0.00,WUHU216HW,2013-08-21 04:35:00,
2013-08-21 00:40:00,68.7,64.0,30.38,SSW,203,0.0,0.0,85,0.00,,,0.00,WUHU216HW,2013-08-21 04:40:00,
2013-08-21 00:45:00,68.7,64.0,30.38,SSW,203,0.0,0.0,85,0.00,,,0.00,WUHU216HW,2013-08-21 04:45:00,
2013-08-21 00:50:00,68.7,64.0,30.38,SSW,203,0.0,0.0,85,0.00,,,0.00,WUHU216HW,2013-08-21 04:50:00,
2013-08-21 00:55:00,68.5,63.8,30.38,SSW,203,0.0,0.0,85,0.00,,,0.00,WUHU216HW,2013-08-21 04:55:00,
2013-08-21 01:00:00,68.3,63.6,30.38,SSW,203,0.0,0.0,85,0.00,,,0.00,WUHU216HW,2013-08-21 05:00:00,
2013-08-21 01:05:00,68.3,63.6,30.38,SSW,203,0.0,0.0,85,0.00,,,0.00,WUHU216HW,2013-08-21 05:05:00,
2013-08-21 01:10:00,68.1,63.4,30.38,SSW,203,0.0,0.0,85,0.00,,,0.00,WUHU216HW,2013-08-21 05:10:00,
2013-08-21 01:15:00,68.1,63.4,30.38,SSW,203,0.0,0.0,85,0.00,,,0.00,WUHU216HW,2013-08-21 05:15:00,
2013-08-21 01:20:00,68.1,63.4,30.38,SSW,203,0.0,0.0,85,0.00,,,0.00,WUHU216HW,2013-08-21 05:20:00,
2013-08-21 01:25:00,68.1,63.4,30.38,SSW,203,0.0,0.0,85,0.00,,,0.00,WUHU216HW,2013-08-21 05:25:00,
2013-08-21 01:30:00,68.1,63.4,30.38,SSW,203,0.0,0.0,85,0.00,,,0.00,WUHU216HW,2013-08-21 05:30:00,
2013-08-21 01:35:00,68.1,63.4,30.38,SSW,203,0.0,0.0,85,0.00,,,0.00,WUHU216HW,2013-08-21 05:35:00,
2013-08-21 01:40:00,68.1,63.4,30.37,SSW,203,0.0,0.0,85,0.00,,,0.00,WUHU216HW,2013-08-21 05:40:00,
2013-08-21 01:45:00,68.1,63.8,30.37,SSW,203,0.0,0.0,86,0.00,,,0.00,WUHU216HW,2013-08-21 05:45:00,
2013-08-21 01:50:00,68.1,63.8,30.37,SSW,203,0.0,0.0,86,0.00,,,0.00,WUHU216HW,2013-08-21 05:50:00,
2013-08-21 01:55:00,68.1,63.8,30.37,SSW,203,0.0,0.0,86,0.00,,,0.00,WUHU216HW,2013-08-21 05:55:00,
2013-08-21 02:00:00,68.1,63.8,30.36,SSW,203,0.0,0.0,86,0.00,,,0.00,WUHU216HW,2013-08-21 06:00:00,
2013-08-21 02:05:00,68.1,63.8,30.35,SSW,203,0.0,0.0,86,0.00,,,0.00,WUHU216HW,2013-08-21 06:05:00,
2013-08-21 02:10:00,67.8,63.4,30.36,SSW,203,0.0,0.0,86,0.00,,,0.00,WUHU216HW,2013-08-21 06:10:00,
2013-08-21 02:15:00,67.6,63.2,30.36,SSW,203,0.0,0.0,86,0.00,,,0.00,WUHU216HW,2013-08-21 06:15:00,
2013-08-21 02:20:00,67.6,63.2,30.36,SSW,203,0.0,0.0,86,0.00,,,0.00,WUHU216HW,2013-08-21 06:20:00,
2013-08-21 02:25:00,67.6,63.2,30.36,SSW,203,0.0,0.0,86,0.00,,,0.00,WUHU216HW,2013-08-21 06:25:00,
2013-08-21 02:30:00,67.2,62.9,30.35,SSW,203,0.0,0.0,86,0.00,,,0.00,WUHU216HW,2013-08-21 06:30:00,
2013-08-21 02:35:00,67.2,62.9,30.35,SSW,203,0.0,0.0,86,0.00,,,0.00,WUHU216HW,2013-08-21 06:35:00,
2013-08-21 02:40:00,67.1,62.7,30.36,SSW,203,0.0,0.0,86,0.00,,,0.00,WUHU216HW,2013-08-21 06:40:00,
2013-08-21 02:45:00,67.1,62.7,30.36,SSW,203,0.0,0.0,86,0.00,,,0.00,WUHU216HW,2013-08-21 06:45:00,
2013-08-21 02:50:00,66.9,62.5,30.36,SSW,203,0.0,0.0,86,0.00,,,0.00,WUHU216HW,2013-08-21 06:50:00,
2013-08-21 02:55:00,66.9,62.5,30.36,SSW,203,0.0,0.0,86,0.00,,,0.00,WUHU216HW,2013-08-21 06:55:00,
2013-08-21 03:00:00,66.7,62.3,30.36,SSW,203,0.0,0.0,86,0.00,,,0.00,WUHU216HW,2013-08-21 07:00:00,
2013-08-21 03:05:00,66.7,62.3,30.36,SSW,203,0.0,0.0,86,0.00,,,0.00,WUHU216HW,2013-08-21 07:05:00,
2013-08-21 03:10:00,66.5,62.2,30.35,SSW,203,0.0,0.0,86,0.00,,,0.00,WUHU216HW,2013-08-21 07:10:00,
2013-08-21 03:16:00,66.3,62.0,30.35,SSW,203,0.0,0.0,86,0.00,,,0.00,WUHU216HW,2013-08-21 07:16:00,
2013-08-21 03:21:00,66.3,62.0,30.36,SSW,203,0.0,0.0,86,0.00,,,0.00,WUHU216HW,2013-08-21 07:21:00,
2013-08-21 03:26:00,66.2,61.8,30.35,SSW,203,0.0,0.0,86,0.00,,,0.00,WUHU216HW,2013-08-21 07:26:00,
2013-08-21 03:31:00,66.0,61.9,30.35,SSW,203,0.0,0.0,87,0.00,,,0.00,WUHU216HW,2013-08-21 07:31:00,
2013-08-21 03:36:00,66.0,61.9,30.35,SSW,203,0.0,0.0,87,0.00,,,0.00,WUHU216HW,2013-08-21 07:36:00,
2013-08-21 03:41:00,66.0,61.9,30.35,SSW,203,0.0,0.0,87,0.00,,,0.00,WUHU216HW,2013-08-21 07:41:00,
2013-08-21 03:46:00,66.0,61.9,30.34,SSW,203,0.0,0.0,87,0.00,,,0.00,WUHU216HW,2013-08-21 07:46:00,
2013-08-21 03:51:00,65.8,61.8,30.34,SSW,203,0.0,0.0,87,0.00,,,0.00,WUHU216HW,2013-08-21 07:51:00,
2013-08-21 03:56:00,65.8,61.8,30.34,SSW,203,0.0,0.0,87,0.00,,,0.00,WUHU216HW,2013-08-21 07:56:00,
2013-08-21 04:01:00,65.8,61.8,30.34,SSW,203,0.0,0.0,87,0.00,,,0.00,WUHU216HW,2013-08-21 08:01:00,
2013-08-21 04:06:00,65.8,61.8,30.34,SSW,203,0.0,0.0,87,0.00,,,0.00,WUHU216HW,2013-08-21 08:06:00,
2013-08-21 04:11:00,65.6,61.6,30.35,SSW,203,0.0,0.0,87,0.00,,,0.00,WUHU216HW,2013-08-21 08:11:00,
2013-08-21 04:16:00,65.6,61.6,30.35,SSW,203,0.0,0.0,87,0.00,,,0.00,WUHU216HW,2013-08-21 08:16:00,
2013-08-21 04:21:00,65.6,61.6,30.34,SSW,203,0.0,0.0,87,0.00,,,0.00,WUHU216HW,2013-08-21 08:21:00,
2013-08-21 04:26:00,65.6,61.6,30.35,SSW,203,0.0,0.0,87,0.00,,,0.00,WUHU216HW,2013-08-21 08:26:00,
2013-08-21 04:31:00,65.6,61.6,30.35,SSW,203,0.0,0.0,87,0.00,,,0.00,WUHU216HW,2013-08-21 08:31:00,
2013-08-21 04:36:00,65.4,61.4,30.35,SSW,203,0.0,0.0,87,0.00,,,0.00,WUHU216HW,2013-08-21 08:36:00,
2013-08-21 04:41:00,65.4,61.4,30.35,SSW,203,0.0,0.0,87,0.00,,,0.00,WUHU216HW,2013-08-21 08:41:00,
2013-08-21 04:46:00,65.3,61.6,30.36,SSW,203,0.0,0.0,88,0.00,,,0.00,WUHU216HW,2013-08-21 08:46:00,
2013-08-21 04:51:00,65.3,61.6,30.36,SSW,203,0.0,0.0,88,0.00,,,0.00,WUHU216HW,2013-08-21 08:51:00,
2013-08-21 04:56:00,65.3,61.6,30.36,SSW,203,0.0,0.0,88,0.00,,,0.00,WUHU216HW,2013-08-21 08:56:00,
2013-08-21 05:01:00,65.1,61.4,30.36,SSW,203,0.0,0.0,88,0.00,,,0.00,WUHU216HW,2013-08-21 09:01:00,
2013-08-21 05:06:00,65.1,61.4,30.37,SSW,203,0.0,0.0,88,0.00,,,0.00,WUHU216HW,2013-08-21 09:06:00,
2013-08-21 05:11:00,65.1,61.4,30.36,SSW,203,0.0,0.0,88,0.00,,,0.00,WUHU216HW,2013-08-21 09:11:00,
2013-08-21 05:16:00,65.1,61.4,30.37,SSW,203,0.0,0.0,88,0.00,,,0.00,WUHU216HW,2013-08-21 09:16:00,
2013-08-21 05:21:00,65.1,61.4,30.37,SSW,203,0.0,0.0,88,0.00,,,0.00,WUHU216HW,2013-08-21 09:21:00,
2013-08-21 05:26:00,65.1,61.4,30.37,SSW,203,0.0,0.0,88,0.00,,,0.00,WUHU216HW,2013-08-21 09:26:00,
2013-08-21 05:31:00,65.1,61.4,30.37,SSW,203,0.0,0.0,88,0.00,,,0.00,WUHU216HW,2013-08-21 09:31:00,
2013-08-21 05:36:00,65.1,61.4,30.37,SSW,203,0.0,0.0,88,0.00,,,0.00,WUHU216HW,2013-08-21 09:36:00,
2013-08-21 05:41:00,65.1,61.4,30.37,SSW,203,0.0,0.0,88,0.00,,,0.00,WUHU216HW,2013-08-21 09:41:00,
2013-08-21 05:46:00,64.9,61.3,30.37,SSW,203,0.0,0.0,88,0.00,,,0.00,WUHU216HW,2013-08-21 09:46:00,
2013-08-21 05:51:00,64.9,61.3,30.37,SSW,203,0.0,0.0,88,0.00,,,0.00,WUHU216HW,2013-08-21 09:51:00,
2013-08-21 05:56:00,64.9,61.3,30.37,SSW,203,0.0,0.0,88,0.00,,,0.00,WUHU216HW,2013-08-21 09:56:00,
2013-08-21 06:01:00,64.9,61.3,30.37,SSW,203,0.0,0.0,88,0.00,,,0.00,WUHU216HW,2013-08-21 10:01:00,
2013-08-21 06:06:00,64.9,61.3,30.37,SSW,203,0.0,0.0,88,0.00,,,0.00,WUHU216HW,2013-08-21 10:06:00,
2013-08-21 06:11:00,64.9,61.3,30.38,SSW,203,0.0,0.0,88,0.00,,,0.00,WUHU216HW,2013-08-21 10:11:00,
2013-08-21 06:16:00,64.7,61.1,30.38,SSW,203,0.0,0.0,88,0.00,,,0.00,WUHU216HW,2013-08-21 10:16:00,
2013-08-21 06:21:00,64.7,61.1,30.38,SSW,203,0.0,0.0,88,0.00,,,0.00,WUHU216HW,2013-08-21 10:21:00,
2013-08-21 06:26:00,64.7,61.1,30.38,SSW,203,0.0,0.0,88,0.00,,,0.00,WUHU216HW,2013-08-21 10:26:00,
2013-08-21 06:31:00,64.7,61.1,30.39,SSW,203,0.0,0.0,88,0.00,,,0.00,WUHU216HW,2013-08-21 10:31:00,
2013-08-21 06:36:00,64.7,61.1,30.39,SSW,203,0.0,0.0,88,0.00,,,0.00,WUHU216HW,2013-08-21 10:36:00,
2013-08-21 06:41:00,64.7,61.1,30.38,SSW,203,0.0,0.0,88,0.00,,,0.00,WUHU216HW,2013-08-21 10:41:00,
2013-08-21 06:46:00,64.7,61.5,30.38,SSW,203,0.0,0.0,89,0.00,,,0.00,WUHU216HW,2013-08-21 10:46:00,
2013-08-21 06:51:00,64.7,61.5,30.38,SSW,203,0.0,0.0,89,0.00,,,0.00,WUHU216HW,2013-08-21 10:51:00,
2013-08-21 06:56:00,64.7,61.5,30.38,SSW,203,0.0,0.0,89,0.00,,,0.00,WUHU216HW,2013-08-21 10:56:00,
2013-08-21 07:01:00,64.9,61.6,30.38,SSW,203,0.0,0.0,89,0.00,,,0.00,WUHU216HW,2013-08-21 11:01:00,
2013-08-21 07:06:00,64.9,61.6,30.38,SSW,203,0.0,0.0,89,0.00,,,0.00,WUHU216HW,2013-08-21 11:06:00,
2013-08-21 07:11:00,64.9,61.6,30.38,SSW,203,0.0,0.0,89,0.00,,,0.00,WUHU216HW,2013-08-21 11:11:00,
2013-08-21 07:16:00,64.9,61.6,30.38,SSW,203,0.0,0.0,89,0.00,,,0.00,WUHU216HW,2013-08-21 11:16:00,
2013-08-21 07:21:00,64.9,61.6,30.37,SSW,203,0.0,0.0,89,0.02,,,0.02,WUHU216HW,2013-08-21 11:21:00,
2013-08-21 07:26:00,65.1,61.8,30.38,SSW,203,0.0,0.0,89,0.02,,,0.02,WUHU216HW,2013-08-21 11:26:00,
2013-08-21 07:31:00,65.1,61.8,30.38,SSW,203,0.0,0.0,89,0.02,,,0.02,WUHU216HW,2013-08-21 11:31:00,
2013-08-21 07:36:00,65.1,61.8,30.37,SSW,203,0.0,0.0,89,0.02,,,0.02,WUHU216HW,2013-08-21 11:36:00,
2013-08-21 07:41:00,65.3,61.9,30.37,SSW,203,0.0,0.0,89,0.02,,,0.02,WUHU216HW,2013-08-21 11:41:00,
2013-08-21 07:46:00,65.3,62.3,30.37,SSW,203,0.0,0.0,90,0.02,,,0.02,WUHU216HW,2013-08-21 11:46:00,
2013-08-21 07:51:00,65.3,62.3,30.37,SSW,203,0.0,0.0,90,0.02,,,0.02,WUHU216HW,2013-08-21 11:51:00,
2013-08-21 07:56:00,65.3,62.3,30.37,SSW,203,0.0,0.0,90,0.02,,,0.02,WUHU216HW,2013-08-21 11:56:00,
2013-08-21 08:01:00,65.3,62.3,30.36,SSW,203,0.0,0.0,90,0.02,,,0.02,WUHU216HW,2013-08-21 12:01:00,
2013-08-21 08:06:00,65.3,62.3,30.37,SSW,203,0.0,0.0,90,0.02,,,0.02,WUHU216HW,2013-08-21 12:06:00,
2013-08-21 08:11:00,65.3,62.3,30.37,SSW,203,0.0,0.0,90,0.02,,,0.02,WUHU216HW,2013-08-21 12:11:00,
2013-08-21 08:16:00,65.4,62.3,30.39,SSW,203,0.0,0.0,90,0.00,,,0.02,WUHU216HW,2013-08-21 12:16:00,
2013-08-21 08:21:00,65.4,62.4,30.39,SSW,203,0.0,0.0,90,0.00,,,0.02,WUHU216HW,2013-08-21 12:21:00,
2013-08-21 08:26:00,65.6,62.6,30.39,SSW,203,0.0,0.0,90,0.00,,,0.02,WUHU216HW,2013-08-21 12:26:00,
2013-08-21 08:31:00,65.8,62.8,30.39,SSW,203,0.0,0.0,90,0.00,,,0.02,WUHU216HW,2013-08-21 12:31:00,
2013-08-21 08:36:00,65.8,62.8,30.39,SSW,203,0.0,0.0,90,0.00,,,0.02,WUHU216HW,2013-08-21 12:36:00,
2013-08-21 08:41:00,66.0,62.9,30.39,SSW,203,0.0,0.0,90,0.00,,,0.02,WUHU216HW,2013-08-21 12:41:00,
2013-08-21 08:46:00,66.0,62.9,30.39,SSW,203,0.0,0.0,90,0.00,,,0.02,WUHU216HW,2013-08-21 12:46:00,
2013-08-21 08:51:00,66.3,63.6,30.39,SSW,203,0.0,0.0,91,0.00,,,0.02,WUHU216HW,2013-08-21 12:51:00,
2013-08-21 08:56:00,66.5,63.8,30.39,SSW,203,0.0,0.0,91,0.00,,,0.02,WUHU216HW,2013-08-21 12:56:00,
2013-08-21 09:01:00,66.7,63.9,30.39,SSW,203,0.0,0.0,91,0.00,,,0.02,WUHU216HW,2013-08-21 13:01:00,
2013-08-21 09:06:00,66.9,64.1,30.39,SSW,203,0.0,0.0,91,0.00,,,0.02,WUHU216HW,2013-08-21 13:06:00,
2013-08-21 09:11:00,67.1,64.3,30.40,SSW,203,0.0,0.0,91,0.00,,,0.02,WUHU216HW,2013-08-21 13:11:00,
2013-08-21 09:16:00,67.2,64.5,30.40,SSW,203,0.0,0.0,91,0.00,,,0.02,WUHU216HW,2013-08-21 13:16:00,
2013-08-21 09:21:00,67.6,64.5,30.40,SSW,203,0.0,0.0,91,0.00,,,0.02,WUHU216HW,2013-08-21 13:21:00,
2013-08-21 09:26:00,67.6,64.8,30.40,SSW,203,0.0,0.0,91,0.00,,,0.02,WUHU216HW,2013-08-21 13:26:00,
2013-08-21 09:31:00,67.8,65.0,30.40,SSW,203,0.0,0.0,91,0.00,,,0.02,WUHU216HW,2013-08-21 13:31:00,
2013-08-21 09:36:00,68.0,65.2,30.40,SSW,203,0.0,0.0,91,0.00,,,0.02,WUHU216HW,2013-08-21 13:36:00,
2013-08-21 09:41:00,68.1,65.4,30.40,SSW,203,0.0,0.0,91,0.00,,,0.02,WUHU216HW,2013-08-21 13:41:00,
2013-08-21 09:46:00,68.3,65.4,30.40,SSW,203,0.0,0.0,91,0.00,,,0.02,WUHU216HW,2013-08-21 13:46:00,
2013-08-21 09:51:00,68.5,65.7,30.40,SSW,203,0.0,0.0,91,0.00,,,0.02,WUHU216HW,2013-08-21 13:51:00,
2013-08-21 09:56:00,68.5,65.7,30.40,SSW,203,0.0,0.0,91,0.00,,,0.02,WUHU216HW,2013-08-21 13:56:00,
2013-08-21 10:01:00,68.7,65.6,30.40,SSW,203,0.0,0.0,91,0.00,,,0.02,WUHU216HW,2013-08-21 14:01:00,
2013-08-21 10:06:00,68.9,66.1,30.40,SSW,203,0.0,0.0,91,0.00,,,0.02,WUHU216HW,2013-08-21 14:06:00,
2013-08-21 10:11:00,69.0,66.3,30.40,SSW,203,0.0,0.0,91,0.00,,,0.02,WUHU216HW,2013-08-21 14:11:00,
2013-08-21 10:16:00,69.4,66.6,30.41,SSW,203,0.0,0.0,91,0.00,,,0.02,WUHU216HW,2013-08-21 14:16:00,
2013-08-21 10:21:00,69.4,66.6,30.41,SSW,203,0.0,0.0,91,0.00,,,0.02,WUHU216HW,2013-08-21 14:21:00,
2013-08-21 10:26:00,69.6,66.5,30.41,SSW,203,0.0,0.0,90,0.00,,,0.02,WUHU216HW,2013-08-21 14:26:00,
2013-08-21 10:31:00,69.9,66.7,30.41,SSW,203,0.0,0.0,90,0.00,,,0.02,WUHU216HW,2013-08-21 14:31:00,
2013-08-21 10:36:00,70.1,67.1,30.41,SSW,203,0.0,0.0,90,0.00,,,0.02,WUHU216HW,2013-08-21 14:36:00,
2013-08-21 10:41:00,70.3,67.2,30.41,SSW,203,0.0,0.0,90,0.00,,,0.02,WUHU216HW,2013-08-21 14:41:00,
2013-08-21 10:46:00,70.7,67.6,30.41,SSW,203,0.0,0.0,90,0.00,,,0.02,WUHU216HW,2013-08-21 14:46:00,
2013-08-21 10:51:00,70.8,67.8,30.41,SSW,203,0.0,0.0,90,0.00,,,0.02,WUHU216HW,2013-08-21 14:51:00,
2013-08-21 10:56:00,70.8,67.8,30.42,SSW,203,0.0,0.0,90,0.00,,,0.02,WUHU216HW,2013-08-21 14:56:00,
2013-08-21 11:01:00,71.2,68.1,30.41,SSW,203,0.0,0.0,90,0.00,,,0.02,WUHU216HW,2013-08-21 15:01:00,
2013-08-21 11:07:00,71.2,68.1,30.42,SSW,203,0.0,0.0,90,0.00,,,0.02,WUHU216HW,2013-08-21 15:07:00,
2013-08-21 11:12:00,71.4,68.0,30.41,SSW,203,0.0,0.0,89,0.00,,,0.02,WUHU216HW,2013-08-21 15:12:00,
2013-08-21 11:17:00,71.7,68.1,30.42,SSW,203,0.0,0.0,89,0.00,,,0.02,WUHU216HW,2013-08-21 15:17:00,
2013-08-21 11:22:00,71.7,68.3,30.41,SSW,203,0.0,0.0,89,0.00,,,0.02,WUHU216HW,2013-08-21 15:22:00,
2013-08-21 11:27:00,72.1,68.7,30.41,SSW,203,0.0,0.0,89,0.00,,,0.02,WUHU216HW,2013-08-21 15:27:00,
2013-08-21 11:32:00,72.3,68.5,30.41,SSW,203,0.0,0.0,88,0.00,,,0.02,WUHU216HW,2013-08-21 15:32:00,
2013-08-21 11:37:00,72.6,68.9,30.42,SSW,203,0.0,0.0,88,0.00,,,0.02,WUHU216HW,2013-08-21 15:37:00,
2013-08-21 11:42:00,73.0,68.9,30.41,South,180,0.0,0.0,87,0.00,,,0.02,WUHU216HW,2013-08-21 15:42:00,
2013-08-21 11:47:00,73.0,68.6,30.41,South,180,0.0,0.0,86,0.00,,,0.02,WUHU216HW,2013-08-21 15:47:00,
2013-08-21 11:52:00,73.0,68.6,30.41,South,180,0.0,0.0,86,0.00,,,0.02,WUHU216HW,2013-08-21 15:52:00,
2013-08-21 11:57:00,73.0,68.2,30.41,South,180,0.0,0.0,85,0.00,,,0.02,WUHU216HW,2013-08-21 15:57:00,
2013-08-21 12:02:00,73.2,68.4,30.41,South,180,0.0,0.0,85,0.00,,,0.02,WUHU216HW,2013-08-21 16:02:00,
2013-08-21 12:07:00,73.2,68.4,30.41,South,180,0.0,0.0,85,0.00,,,0.02,WUHU216HW,2013-08-21 16:07:00,
2013-08-21 12:12:00,73.2,68.4,30.41,South,180,0.0,0.0,85,0.00,,,0.02,WUHU216HW,2013-08-21 16:12:00,
2013-08-21 12:17:00,73.2,68.4,30.41,SSE,158,0.0,0.0,85,0.00,,,0.02,WUHU216HW,2013-08-21 16:17:00,
2013-08-21 12:22:00,73.2,68.4,30.41,SSE,158,0.0,0.0,85,0.00,,,0.02,WUHU216HW,2013-08-21 16:22:00,
2013-08-21 12:27:00,73.2,68.1,30.41,SSE,158,0.0,0.0,84,0.00,,,0.02,WUHU216HW,2013-08-21 16:27:00,
2013-08-21 12:32:00,73.4,68.1,30.41,SSE,158,0.0,0.0,85,0.00,,,0.02,WUHU216HW,2013-08-21 16:32:00,
2013-08-21 12:37:00,73.4,68.6,30.41,SSE,158,0.0,0.0,85,0.00,,,0.02,WUHU216HW,2013-08-21 16:37:00,
2013-08-21 12:42:00,73.5,68.8,30.41,SSE,158,0.0,0.0,85,0.00,,,0.02,WUHU216HW,2013-08-21 16:42:00,
2013-08-21 12:47:00,73.5,68.8,30.41,SE,135,0.0,0.0,85,0.00,,,0.02,WUHU216HW,2013-08-21 16:47:00,
2013-08-21 12:52:00,73.7,68.6,30.41,SE,135,0.0,0.0,84,0.00,,,0.02,WUHU216HW,2013-08-21 16:52:00,
2013-08-21 12:57:00,73.7,68.3,30.41,SE,135,0.0,0.0,83,0.00,,,0.02,WUHU216HW,2013-08-21 16:57:00,
2013-08-21 13:02:00,73.7,67.9,30.41,SE,135,0.0,0.0,82,0.00,,,0.02,WUHU216HW,2013-08-21 17:02:00,
2013-08-21 13:07:00,73.5,67.7,30.41,SE,135,0.0,0.0,82,0.00,,,0.02,WUHU216HW,2013-08-21 17:07:00,
2013-08-21 13:12:00,73.7,68.3,30.40,SE,135,0.0,0.0,83,0.00,,,0.02,WUHU216HW,2013-08-21 17:12:00,
2013-08-21 13:17:00,73.5,67.7,30.40,SE,135,0.0,0.0,82,0.00,,,0.02,WUHU216HW,2013-08-21 17:17:00,
2013-08-21 13:22:00,73.5,67.7,30.40,SE,135,0.0,0.0,82,0.00,,,0.02,WUHU216HW,2013-08-21 17:22:00,
2013-08-21 13:27:00,73.7,67.9,30.40,SE,135,0.0,0.0,82,0.00,,,0.02,WUHU216HW,2013-08-21 17:27:00,
2013-08-21 13:32:00,73.9,68.4,30.40,SE,135,0.0,0.0,83,0.00,,,0.02,WUHU216HW,2013-08-21 17:32:00,
2013-08-21 13:37:00,73.9,68.4,30.39,SE,135,0.0,0.0,83,0.00,,,0.02,WUHU216HW,2013-08-21 17:37:00,
2013-08-21 13:42:00,74.1,68.3,30.39,SE,135,0.0,0.0,82,0.00,,,0.02,WUHU216HW,2013-08-21 17:42:00,
2013-08-21 13:47:00,74.1,68.3,30.39,SE,135,0.0,0.0,82,0.00,,,0.02,WUHU216HW,2013-08-21 17:47:00,
2013-08-21 13:52:00,74.3,68.5,30.39,SSE,158,0.0,0.0,82,0.00,,,0.02,WUHU216HW,2013-08-21 17:52:00,
2013-08-21 13:57:00,74.4,68.6,30.38,SE,135,0.0,0.0,82,0.00,,,0.02,WUHU216HW,2013-08-21 17:57:00,
2013-08-21 14:02:00,74.6,68.8,30.38,SE,135,0.0,0.0,82,0.00,,,0.02,WUHU216HW,2013-08-21 18:02:00,
2013-08-21 14:07:00,74.8,69.0,30.38,SE,135,0.0,0.0,82,0.00,,,0.02,WUHU216HW,2013-08-21 18:07:00,
2013-08-21 14:12:00,75.0,69.2,30.38,SSE,158,0.0,0.0,82,0.00,,,0.02,WUHU216HW,2013-08-21 18:12:00,
2013-08-21 14:17:00,75.3,69.2,30.38,SSE,158,0.0,0.0,81,0.00,,,0.02,WUHU216HW,2013-08-21 18:17:00,
2013-08-21 14:22:00,75.5,69.3,30.38,SE,135,0.0,0.0,81,0.00,,,0.02,WUHU216HW,2013-08-21 18:22:00,
2013-08-21 14:27:00,75.9,70.0,30.37,SE,135,0.0,0.0,82,0.00,,,0.02,WUHU216HW,2013-08-21 18:27:00,
2013-08-21 14:32:00,76.1,70.2,30.38,SE,135,0.0,0.0,82,0.00,,,0.02,WUHU216HW,2013-08-21 18:32:00,
2013-08-21 14:37:00,76.1,69.8,30.38,SE,135,0.0,0.0,81,0.00,,,0.02,WUHU216HW,2013-08-21 18:37:00,
2013-08-21 14:42:00,76.2,69.6,30.37,SE,135,0.0,0.0,80,0.00,,,0.02,WUHU216HW,2013-08-21 18:42:00,
2013-08-21 14:47:00,76.2,69.6,30.37,East,90,0.0,0.0,80,0.00,,,0.02,WUHU216HW,2013-08-21 18:47:00,
2013-08-21 14:52:00,76.2,69.6,30.37,SE,135,0.0,0.0,79,0.00,,,0.02,WUHU216HW,2013-08-21 18:52:00,
2013-08-21 14:57:00,76.2,69.2,30.37,SE,135,0.0,0.0,79,0.00,,,0.02,WUHU216HW,2013-08-21 18:57:00,
2013-08-21 15:02:00,76.2,69.2,30.37,SE,135,0.0,0.0,79,0.00,,,0.02,WUHU216HW,2013-08-21 19:02:00,
2013-08-21 15:07:00,76.2,69.2,30.36,SE,135,0.0,0.0,79,0.00,,,0.02,WUHU216HW,2013-08-21 19:07:00,
2013-08-21 15:12:00,76.2,69.2,30.36,SE,135,0.0,0.0,79,0.00,,,0.02,WUHU216HW,2013-08-21 19:12:00,
2013-08-21 15:17:00,76.4,69.4,30.36,SE,135,0.0,0.0,79,0.00,,,0.02,WUHU216HW,2013-08-21 19:17:00,
2013-08-21 15:22:00,76.4,69.4,30.36,SE,135,0.0,0.0,79,0.00,,,0.02,WUHU216HW,2013-08-21 19:22:00,
2013-08-21 15:27:00,76.6,70.0,30.36,SE,135,0.0,0.0,80,0.00,,,0.02,WUHU216HW,2013-08-21 19:27:00,
2013-08-21 15:32:00,76.8,69.7,30.36,SE,135,0.0,0.0,79,0.00,,,0.02,WUHU216HW,2013-08-21 19:32:00,
2013-08-21 15:37:00,76.8,69.7,30.36,SE,135,0.0,0.0,79,0.00,,,0.02,WUHU216HW,2013-08-21 19:37:00,
2013-08-21 15:42:00,76.6,69.6,30.37,SE,135,0.0,0.0,79,0.00,,,0.02,WUHU216HW,2013-08-21 19:42:00,
2013-08-21 15:47:00,76.6,69.6,30.36,SE,135,0.0,0.0,79,0.00,,,0.02,WUHU216HW,2013-08-21 19:47:00,
2013-08-21 15:52:00,76.6,69.6,30.36,SE,135,0.0,0.0,79,0.00,,,0.02,WUHU216HW,2013-08-21 19:52:00,
2013-08-21 15:57:00,76.6,69.6,30.36,SE,135,0.0,0.0,79,0.00,,,0.02,WUHU216HW,2013-08-21 19:57:00,
2013-08-21 16:02:00,76.4,69.4,30.36,SE,135,0.0,0.0,79,0.00,,,0.02,WUHU216HW,2013-08-21 20:02:00,
2013-08-21 16:07:00,76.6,70.0,30.36,SE,135,0.0,0.0,80,0.00,,,0.02,WUHU216HW,2013-08-21 20:07:00,
2013-08-21 16:12:00,76.6,70.0,30.36,SE,135,0.0,0.0,80,0.00,,,0.02,WUHU216HW,2013-08-21 20:12:00,
2013-08-21 16:17:00,76.8,70.1,30.36,SE,135,0.0,0.0,80,0.00,,,0.02,WUHU216HW,2013-08-21 20:17:00,
2013-08-21 16:22:00,76.6,69.7,30.36,SE,135,0.0,0.0,79,0.00,,,0.02,WUHU216HW,2013-08-21 20:22:00,
2013-08-21 16:27:00,76.6,69.6,30.36,SE,135,0.0,0.0,79,0.00,,,0.02,WUHU216HW,2013-08-21 20:27:00,
2013-08-21 16:32:00,76.6,69.6,30.35,SE,135,0.0,0.0,79,0.00,,,0.02,WUHU216HW,2013-08-21 20:32:00,
2013-08-21 16:37:00,76.6,69.6,30.36,SE,135,0.0,0.0,79,0.00,,,0.02,WUHU216HW,2013-08-21 20:37:00,
2013-08-21 16:42:00,76.2,69.2,30.36,SE,135,0.0,0.0,79,0.00,,,0.02,WUHU216HW,2013-08-21 20:42:00,
2013-08-21 16:47:00,76.2,69.2,30.36,SE,135,0.0,0.0,79,0.00,,,0.02,WUHU216HW,2013-08-21 20:47:00,
2013-08-21 16:52:00,76.4,69.4,30.36,SE,135,0.0,0.0,79,0.00,,,0.02,WUHU216HW,2013-08-21 20:52:00,
2013-08-21 16:57:00,76.6,70.0,30.36,SE,135,0.0,0.0,80,0.00,,,0.02,WUHU216HW,2013-08-21 20:57:00,
2013-08-21 17:02:00,76.6,69.6,30.35,SE,135,0.0,0.0,79,0.00,,,0.02,WUHU216HW,2013-08-21 21:02:00,
2013-08-21 17:07:00,76.8,70.1,30.35,SE,135,0.0,0.0,80,0.00,,,0.02,WUHU216HW,2013-08-21 21:07:00,
2013-08-21 17:12:00,76.8,70.1,30.34,SE,135,0.0,0.0,80,0.00,,,0.02,WUHU216HW,2013-08-21 21:12:00,
2013-08-21 17:17:00,77.0,70.3,30.35,SE,135,0.0,0.0,80,0.00,,,0.02,WUHU216HW,2013-08-21 21:17:00,
2013-08-21 17:22:00,77.1,70.1,30.34,SE,135,0.0,0.0,79,0.00,,,0.02,WUHU216HW,2013-08-21 21:22:00,
2013-08-21 17:27:00,77.3,70.3,30.34,SE,135,0.0,0.0,79,0.00,,,0.02,WUHU216HW,2013-08-21 21:27:00,
2013-08-21 17:32:00,77.3,70.3,30.33,SE,135,0.0,0.0,79,0.00,,,0.02,WUHU216HW,2013-08-21 21:32:00,
2013-08-21 17:37:00,77.3,70.3,30.32,SE,135,0.0,0.0,79,0.00,,,0.02,WUHU216HW,2013-08-21 21:37:00,
2013-08-21 17:42:00,77.3,70.3,30.32,SE,135,0.0,0.0,79,0.00,,,0.02,WUHU216HW,2013-08-21 21:42:00,
2013-08-21 17:47:00,77.3,69.9,30.32,SE,135,0.0,0.0,78,0.00,,,0.02,WUHU216HW,2013-08-21 21:47:00,
2013-08-21 17:52:00,77.1,69.9,30.31,SE,135,0.0,0.0,78,0.00,,,0.02,WUHU216HW,2013-08-21 21:52:00,
2013-08-21 17:57:00,77.3,69.9,30.31,WSW,248,0.0,0.0,78,0.00,,,0.02,WUHU216HW,2013-08-21 21:57:00,
2013-08-21 18:02:00,77.5,70.1,30.32,SE,135,0.0,0.0,78,0.00,,,0.02,WUHU216HW,2013-08-21 22:02:00,
2013-08-21 18:07:00,77.7,70.2,30.32,WSW,248,0.0,0.0,78,0.00,,,0.02,WUHU216HW,2013-08-21 22:07:00,
2013-08-21 18:12:00,78.0,70.6,30.32,WSW,248,0.0,0.0,78,0.00,,,0.02,WUHU216HW,2013-08-21 22:12:00,
2013-08-21 18:17:00,78.0,70.6,30.32,WSW,248,0.0,0.0,78,0.00,,,0.02,WUHU216HW,2013-08-21 22:17:00,
2013-08-21 18:22:00,78.4,70.9,30.32,WSW,248,0.0,0.0,78,0.00,,,0.02,WUHU216HW,2013-08-21 22:22:00,
2013-08-21 18:27:00,78.4,70.5,30.32,SE,135,0.0,0.0,77,0.00,,,0.02,WUHU216HW,2013-08-21 22:27:00,
2013-08-21 18:32:00,78.4,70.5,30.32,SE,135,0.0,0.0,77,0.00,,,0.02,WUHU216HW,2013-08-21 22:32:00,
2013-08-21 18:37:00,78.4,70.1,30.32,SE,135,0.0,0.0,76,0.00,,,0.02,WUHU216HW,2013-08-21 22:37:00,
2013-08-21 18:42:00,78.0,69.8,30.32,SE,135,0.0,0.0,76,0.00,,,0.02,WUHU216HW,2013-08-21 22:42:00,
2013-08-21 18:47:00,78.0,69.8,30.33,SE,135,0.0,0.0,76,0.00,,,0.02,WUHU216HW,2013-08-21 22:47:00,
2013-08-21 18:52:00,78.0,69.8,30.33,SE,135,0.0,0.0,76,0.00,,,0.02,WUHU216HW,2013-08-21 22:52:00,
2013-08-21 18:57:00,77.7,69.8,30.33,SE,135,0.0,0.0,77,0.00,,,0.02,WUHU216HW,2013-08-21 22:57:00,
2013-08-21 19:02:00,77.7,69.8,30.33,SE,135,0.0,0.0,77,0.00,,,0.02,WUHU216HW,2013-08-21 23:02:00,
2013-08-21 19:07:00,77.3,69.5,30.33,SE,135,0.0,0.0,77,0.00,,,0.02,WUHU216HW,2013-08-21 23:07:00,
2013-08-21 19:12:00,77.3,69.5,30.32,SE,135,0.0,0.0,77,0.00,,,0.02,WUHU216HW,2013-08-21 23:12:00,
2013-08-21 19:17:00,77.1,69.3,30.32,SE,135,0.0,0.0,77,0.00,,,0.02,WUHU216HW,2013-08-21 23:17:00,
2013-08-21 19:22:00,76.8,69.0,30.32,SE,135,0.0,0.0,77,0.00,,,0.02,WUHU216HW,2013-08-21 23:22:00,
2013-08-21 19:27:00,76.6,68.8,30.32,SE,135,0.0,0.0,77,0.00,,,0.02,WUHU216HW,2013-08-21 23:27:00,
2013-08-21 19:32:00,76.4,68.7,30.32,SE,135,0.0,0.0,77,0.00,,,0.02,WUHU216HW,2013-08-21 23:32:00,
2013-08-21 19:37:00,76.1,68.7,30.32,SE,135,0.0,0.0,78,0.00,,,0.02,WUHU216HW,2013-08-21 23:37:00,
2013-08-21 19:42:00,75.9,68.5,30.32,SE,135,0.0,0.0,78,0.00,,,0.02,WUHU216HW,2013-08-21 23:42:00,
2013-08-21 19:47:00,75.7,68.8,30.33,SE,135,0.0,0.0,79,0.00,,,0.02,WUHU216HW,2013-08-21 23:47:00,
2013-08-21 19:52:00,75.3,68.4,30.33,SE,135,0.0,0.0,79,0.00,,,0.02,WUHU216HW,2013-08-21 23:52:00,
2013-08-21 19:58:00,75.0,68.1,30.32,SE,135,0.0,0.0,79,0.00,,,0.02,WUHU216HW,2013-08-21 23:58:00,
2013-08-21 20:03:00,75.0,68.1,30.33,SE,135,0.0,0.0,79,0.00,,,0.02,WUHU216HW,2013-08-22 00:03:00,
2013-08-21 20:08:00,74.6,67.9,30.32,SE,135,0.0,0.0,80,0.00,,,0.02,WUHU216HW,2013-08-22 00:08:00,
2013-08-21 20:13:00,74.4,68.0,30.32,SE,135,0.0,0.0,80,0.00,,,0.02,WUHU216HW,2013-08-22 00:13:00,
2013-08-21 20:18:00,74.3,67.8,30.32,SE,135,0.0,0.0,80,0.00,,,0.02,WUHU216HW,2013-08-22 00:18:00,
2013-08-21 20:23:00,73.9,67.4,30.32,SE,135,0.0,0.0,80,0.00,,,0.02,WUHU216HW,2013-08-22 00:23:00,
2013-08-21 20:28:00,73.7,67.2,30.32,SE,135,0.0,0.0,80,0.00,,,0.02,WUHU216HW,2013-08-22 00:28:00,
2013-08-21 20:33:00,73.5,67.1,30.32,SE,135,0.0,0.0,80,0.00,,,0.02,WUHU216HW,2013-08-22 00:33:00,
2013-08-21 20:38:00,73.2,66.7,30.32,SE,135,0.0,0.0,80,0.00,,,0.02,WUHU216HW,2013-08-22 00:38:00,
2013-08-21 20:43:00,73.0,66.5,30.33,SE,135,0.0,0.0,80,0.00,,,0.02,WUHU216HW,2013-08-22 00:43:00,
2013-08-21 20:48:00,72.6,66.5,30.32,SE,135,0.0,0.0,81,0.00,,,0.02,WUHU216HW,2013-08-22 00:48:00,
2013-08-21 20:53:00,72.5,66.3,30.33,SE,135,0.0,0.0,81,0.00,,,0.02,WUHU216HW,2013-08-22 00:53:00,
2013-08-21 20:58:00,71.9,65.8,30.33,SE,135,0.0,0.0,81,0.00,,,0.02,WUHU216HW,2013-08-22 00:58:00,
2013-08-21 21:03:00,71.7,65.9,30.34,SE,135,0.0,0.0,82,0.00,,,0.02,WUHU216HW,2013-08-22 01:03:00,
2013-08-21 21:08:00,71.4,65.6,30.34,SE,135,0.0,0.0,82,0.00,,,0.02,WUHU216HW,2013-08-22 01:08:00,
2013-08-21 21:13:00,71.4,65.6,30.34,SE,135,0.0,0.0,82,0.00,,,0.02,WUHU216HW,2013-08-22 01:13:00,
2013-08-21 21:18:00,71.2,65.7,30.34,SE,135,0.0,0.0,83,0.00,,,0.02,WUHU216HW,2013-08-22 01:18:00,
2013-08-21 21:23:00,71.2,65.7,30.34,SE,135,0.0,0.0,83,0.00,,,0.02,WUHU216HW,2013-08-22 01:23:00,
2013-08-21 21:28:00,70.8,65.4,30.34,SE,135,0.0,0.0,83,0.00,,,0.02,WUHU216HW,2013-08-22 01:28:00,
2013-08-21 21:33:00,70.7,65.2,30.34,SE,135,0.0,0.0,83,0.00,,,0.02,WUHU216HW,2013-08-22 01:33:00,
2013-08-21 21:38:00,70.5,65.0,30.34,SE,135,0.0,0.0,83,0.00,,,0.02,WUHU216HW,2013-08-22 01:38:00,
2013-08-21 21:43:00,70.3,64.8,30.34,SE,135,0.0,0.0,83,0.00,,,0.02,WUHU216HW,2013-08-22 01:43:00,
2013-08-21 21:48:00,70.3,64.8,30.35,SE,135,0.0,0.0,83,0.00,,,0.02,WUHU216HW,2013-08-22 01:48:00,
2013-08-21 21:53:00,69.9,64.5,30.35,SE,135,0.0,0.0,83,0.00,,,0.02,WUHU216HW,2013-08-22 01:53:00,
2013-08-21 21:58:00,69.8,64.3,30.35,SE,135,0.0,0.0,83,0.00,,,0.02,WUHU216HW,2013-08-22 01:58:00,
2013-08-21 22:03:00,69.6,64.5,30.35,SE,135,0.0,0.0,84,0.00,,,0.02,WUHU216HW,2013-08-22 02:03:00,
2013-08-21 22:08:00,69.6,64.5,30.36,SE,135,0.0,0.0,84,0.00,,,0.02,WUHU216HW,2013-08-22 02:08:00,
2013-08-21 22:13:00,69.4,64.3,30.35,SE,135,0.0,0.0,84,0.00,,,0.02,WUHU216HW,2013-08-22 02:13:00,
2013-08-21 22:18:00,69.2,64.1,30.36,SE,135,0.0,0.0,84,0.00,,,0.02,WUHU216HW,2013-08-22 02:18:00,
2013-08-21 22:23:00,69.0,64.0,30.35,SE,135,0.0,0.0,84,0.00,,,0.02,WUHU216HW,2013-08-22 02:23:00,
2013-08-21 22:28:00,68.9,63.8,30.35,SE,135,0.0,0.0,84,0.00,,,0.02,WUHU216HW,2013-08-22 02:28:00,
2013-08-21 22:33:00,68.7,63.6,30.35,SE,135,0.0,0.0,84,0.00,,,0.02,WUHU216HW,2013-08-22 02:33:00,
2013-08-21 22:38:00,68.5,63.5,30.35,SE,135,0.0,0.0,84,0.00,,,0.02,WUHU216HW,2013-08-22 02:38:00,
2013-08-21 22:43:00,68.5,63.5,30.36,SE,135,0.0,0.0,84,0.00,,,0.02,WUHU216HW,2013-08-22 02:43:00,
2013-08-21 22:48:00,68.1,63.4,30.36,SE,135,0.0,0.0,85,0.00,,,0.02,WUHU216HW,2013-08-22 02:48:00,
2013-08-21 22:53:00,68.1,63.4,30.35,SE,135,0.0,0.0,85,0.00,,,0.02,WUHU216HW,2013-08-22 02:53:00,
2013-08-21 22:58:00,68.1,63.4,30.35,SE,135,0.0,0.0,85,0.00,,,0.02,WUHU216HW,2013-08-22 02:58:00,
2013-08-21 23:03:00,67.8,63.1,30.36,SE,135,0.0,0.0,85,0.00,,,0.02,WUHU216HW,2013-08-22 03:03:00,
2013-08-21 23:08:00,67.8,63.1,30.35,SE,135,0.0,0.0,85,0.00,,,0.02,WUHU216HW,2013-08-22 03:08:00,
2013-08-21 23:13:00,67.8,63.1,30.36,SE,135,0.0,0.0,85,0.00,,,0.02,WUHU216HW,2013-08-22 03:13:00,
2013-08-21 23:18:00,67.6,62.9,30.36,SE,135,0.0,0.0,85,0.00,,,0.02,WUHU216HW,2013-08-22 03:18:00,
2013-08-21 23:23:00,67.6,62.9,30.36,SE,135,0.0,0.0,85,0.00,,,0.02,WUHU216HW,2013-08-22 03:23:00,
2013-08-21 23:28:00,67.2,62.6,30.36,SE,135,0.0,0.0,85,0.00,,,0.02,WUHU216HW,2013-08-22 03:28:00,
2013-08-21 23:33:00,67.2,62.9,30.36,SE,135,0.0,0.0,86,0.00,,,0.02,WUHU216HW,2013-08-22 03:33:00,
2013-08-21 23:38:00,67.1,62.7,30.35,SE,135,0.0,0.0,86,0.00,,,0.02,WUHU216HW,2013-08-22 03:38:00,
2013-08-21 23:43:00,67.1,62.7,30.35,SE,135,0.0,0.0,86,0.00,,,0.02,WUHU216HW,2013-08-22 03:43:00,
2013-08-21 23:48:00,66.9,62.5,30.35,SE,135,0.0,0.0,86,0.00,,,0.02,WUHU216HW,2013-08-22 03:48:00,
2013-08-21 23:53:00,66.7,62.3,30.35,SE,135,0.0,0.0,86,0.00,,,0.02,WUHU216HW,2013-08-22 03:53:00,
2013-08-21 23:58:00,66.7,62.7,30.35,SE,135,0.0,0.0,87,0.00,,,0.02,WUHU216HW,2013-08-22 03:58:00,